SCP
0 0 0 0 0 0 0 0 0 0 0 0 0 0 0 0 0 0 0 0 0 0 0 0 0 0 0 0 0 0 0 0 0 0 0 0 0 0 0 0 0 0 0
0 0 0 0 0 0 0 0 0 0 0 0 0 0 0 0 0 0 0 0 0 0 0 0 0 0 0 0 0 0 0 0 0 0 0 0 0 0 0 0 0 0 0
0 0 0 0 0 0 0 0 0 0 0 0 0 0 0 0 0 0 0 0 0 0 0 0 0 0 0 0 0 0 0 0 0 0 0 0 0 0 0 0 0 0 0
0 0 0 0 0 0 0 0 0 0 0 0 0 0 0 0 0 0 0 0 0 0 0 0 0 0 0 0 0 0 0 0 0 0 0 0 0 0 0 0 0 0 0
0 0 0 0 0 0 0 0 0 0 0 0 0 0 0 0 0 0 0 0 0 0 0 0 0 0 0 0 0 0 0 0 0 0 0 0 0 0 0 0 0 0 0
0 0 0 0 0 0 0 0 0 0 0 0 0 0 0 0 0 0 0 0 0 0 0 0 0 0 0 0 0 0 0 0 0 0 0 0 0 0 0 0 0 0 0
0 0 0 0 0 0 0 0 0 0 0 0 0 0 0 0 0 0 0 0 0 0 0 0 0 0 0 0 0 0 0 0 0 0 0 0 0 0 0 0 0 0 0
0 0 0 0 0 0 0 0 0 0 0 0 0 0 0 0 0 0 0 0 0 0 0 0 0 0 0 0 0 0 0 0 0 0 0 0 0 0 0 0 0 0 0
0 0 0 0 0 0 0 0 0 0 0 0 0 0 0 0 0 0 0 0 0 0 0 0 0 0 0 0 0 0 0 0 0 0 0 0 0 0 0 0 0 0 0
0 0 0 0 0 0 0 0 0 0 0 0 0 0 0 0 0 0 0 0 0 0 0 0 0 0 0 0 0 0 0 0 0 0 0 0 0 0 0 0 0 0 0
0 0 0 0 0 0 0 0 0 0 0 0 0 0 0 0 0 0 0 0 0 0 0 0 0 0 0 0 0 0 0 0 0 0 0 0 0 0 0 0 0 0 0
0 0 0 0 0 0 0 0 0 0 0 0 0 0 0 0 0 0 0 0 0 0 0 0 0 0 0 0 0 0 0 0 0 0 0 0 0 0 0 0 0 0 0
0 0 0 0 0 0 0 0 0 0 0 0 0 0 0 0 0 0 0 0 0 0 0 0 0 0 0 0 0 0 0 0 0 0 0 0 0 0 0 0 0 0 0
0 0 0 0 0 0 0 0 0 0 0 0 0 0 0 0 0 0 0 0 0 0 0 0 0 0 0 0 0 0 0 0 0 0 0 0 0 0 0 0 0 0 0
0 0 0 0 0 0 0 0 0 0 0 0 0 0 0 0 0 0 0 0 0 0 0 0 0 0 0 0 0 0 0 0 0 0 0 0 0 0 0 0 0 0 0
0 0 0 0 0 0 0 0 0 0 0 0 0 0 0 0 0 0 0 0 0 0 0 0 0 0 0 0 0 0 0 0 0 0 0 0 0 0 0 0 0 0 0
0 0 -0 -0 -0 0 0 0 0 0 0 0 0 0 0 0 0 0 0 0 0 0 0 0 0 0 0 0 0 0 0 0 0 0 0 0 0 0 0 0 0 0 0
0 0 -0 -0 0 0 0 0 0 0 0 0 0 0 0 0 0 0 0 0 0 0 0 0 0 0 0 0 0 0 0 0 0 0 0 0 0 0 0 0 0 0 0
0 0 -0 -0 0 0 0 0 0 0 0 0 0 0 0 0 0 0 0 0 0 0 0 0 0 0 0 0 0 0 0 0 0 0 0 0 0 0 0 0 0 0 0
0 0 -0 -0 -0 0 0 0 0 0 0 0 0 0 0 0 0 0 0 0 0 0 0 0 0 0 0 0 0 0 0 0 0 0 0 0 0 0 0 0 0 0 0
0 0 -0 -0 0 0 0 0 0 0 0 0 0 0 0 0 0 0 0 0 0 0 0 0 0 0 0 0 0 0 0 0 0 0 0 0 0 0 0 0 0 0 0
0 -0 -0 -0 0 0 0 0 0 0 0 0 0 0 0 0 0 0 0 0 0 0 0 0 0 0 0 0 0 0 0 0 0 0 0 0 0 0 0 0 0 0 0
-0 -0 -0 -0 0 0 0 0 0 0 0 0 0 0 0 0 0 0 0 0 0 0 0 0 0 0 0 0 0 0 0 0 0 0 0 0 0 0 0 0 0 0 0
-0 -0 -0 -0 0 0 0 0 0 0 0 0 0 0 0 0 0 0 0 0 0 0 0 0 0 0 0 0 0 0 0 0 0 0 0 0 0 0 0 0 0 0 0
-0 -0 -0 0 0 0 0 0 0 0 0 0 0 0 0 0 0 0 0 0 0 0 0 0 0 0 0 0 0 0 0 0 0 0 0 0 0 0 0 0 0 0 0
-0 -0 -0 0 0 0 0 0 0 0 0 0 0 0 0 0 0 0 0 0 0 0 0 0 0 0 0 0 0 0 0 0 0 0 0 0 0 0 0 0 0 0 0
Wind_Speed
5 4 4 3 3 3 3 2 2 2 2 1 2 2 2 2 2 2 3 4 4 4 4 4 4 5 5 5 6 4 4 3 3 3 3 4 5 6 5 5 5 5 4
5 4 4 4 4 4 3 3 3 3 2 2 2 2 3 3 3 2 3 3 4 4 4 5 4 5 5 6 6 5 4 3 3 3 3 3 4 5 5 4 4 5 4
6 5 5 5 4 4 4 3 3 3 3 2 2 2 2 2 2 2 2 3 3 3 4 4 4 4 5 5 6 6 6 5 4 4 3 3 4 1 3 4 4 4 3
6 5 5 5 5 4 3 4 4 4 3 3 3 4 4 4 4 3 3 3 3 3 3 3 4 4 4 4 5 5 5 6 5 4 3 3 2 2 2 3 4 4 4
5 5 5 5 5 4 4 4 4 4 4 3 3 4 5 4 4 4 4 4 3 3 3 3 3 4 4 4 5 5 5 5 5 4 3 4 3 4 4 4 4 4 4
5 5 4 4 4 4 4 4 5 4 4 4 4 5 5 5 5 5 4 3 3 3 3 3 4 4 4 4 5 5 6 5 6 5 4 4 4 4 4 4 4 4 3
4 4 4 4 4 4 4 5 5 5 5 5 5 5 6 6 6 6 5 4 3 3 4 4 4 4 4 4 4 5 5 6 6 6 5 4 4 3 3 4 4 4 3
4 4 5 5 5 5 5 5 5 5 5 5 5 5 5 4 4 5 5 5 4 4 4 4 4 4 4 4 4 4 4 4 5 5 5 4 4 3 3 3 3 3 3
5 5 5 5 5 5 5 6 6 5 5 5 5 5 5 5 5 5 5 4 4 4 4 4 4 4 4 3 4 3 3 3 4 4 4 4 3 3 3 3 3 3 4
6 6 6 6 6 6 5 5 6 6 6 5 5 4 5 5 5 5 5 5 5 5 5 4 4 4 3 3 3 3 3 3 3 2 3 3 2 2 2 2 3 3 4
7 7 6 6 6 6 5 5 6 6 6 5 5 5 5 5 5 5 5 5 4 4 4 4 4 4 4 4 4 3 4 4 3 3 3 3 2 2 2 2 2 2 3
7 7 7 6 6 6 6 6 6 6 6 5 5 6 5 5 6 5 5 5 4 4 4 3 4 4 4 4 4 4 4 4 4 3 3 3 2 2 2 2 2 2 3
8 7 6 6 6 6 6 6 7 6 6 5 5 6 5 5 5 5 5 4 4 3 3 3 4 4 4 4 4 4 4 4 4 4 4 4 3 3 2 2 2 2 3
8 8 7 7 7 7 7 7 7 6 6 6 6 6 6 5 5 4 4 4 4 4 3 3 3 3 3 3 3 3 3 3 3 3 3 3 4 3 3 2 3 3 3
9 8 8 7 7 7 7 7 7 6 6 6 7 7 5 5 5 4 4 4 4 3 3 3 3 3 3 3 3 3 3 3 3 2 2 2 2 2 2 2 3 3 3
10 9 9 8 8 7 7 7 7 6 6 7 7 6 6 6 5 5 4 4 4 4 4 4 4 3 3 4 5 4 3 3 3 3 2 2 3 3 3 3 3 4 4
11 10 9 8 8 8 7 8 7 6 6 7 7 6 6 6 6 5 5 5 5 5 4 4 4 4 4 5 5 5 4 4 3 3 3 2 2 3 2 3 3 3 4
11 10 9 9 8 7 7 7 7 7 7 7 7 7 6 7 6 6 6 5 5 5 5 4 4 4 4 5 6 5 4 3 3 3 3 3 3 2 2 2 3 3 3
11 10 9 9 8 7 6 6 7 7 7 8 8 7 7 7 7 7 7 6 5 5 5 4 4 5 4 6 6 5 4 3 3 3 3 3 3 3 3 3 3 3 3
10 9 9 8 8 7 6 7 8 8 9 9 8 7 7 7 8 7 6 5 5 5 5 4 5 5 4 5 6 6 3 3 3 2 3 4 4 3 4 3 3 4 4
11 9 9 8 8 7 6 8 9 10 9 7 7 7 7 8 7 6 5 5 5 5 5 5 4 4 5 5 6 7 4 4 3 3 2 2 4 5 4 4 4 4 4
11 10 9 9 8 7 7 9 10 8 6 6 7 7 7 6 6 6 6 6 6 6 5 5 4 4 4 5 6 7 7 5 4 3 3 2 4 4 4 3 3 3 3
11 10 10 10 8 7 8 10 9 7 6 7 8 7 7 7 6 7 7 6 6 5 5 5 4 4 4 4 7 7 8 7 4 3 3 4 4 3 3 3 3 3 2
11 10 10 10 10 8 8 10 8 6 7 8 8 7 7 7 7 6 6 6 6 6 6 6 5 4 4 4 4 4 5 6 4 3 3 4 4 3 3 2 2 2 2
11 10 10 11 11 9 9 8 7 7 8 8 7 7 7 7 7 7 6 7 7 7 7 6 6 5 5 5 7 5 4 4 3 3 2 2 3 2 2 2 1 1 1
11 10 11 11 11 10 9 8 7 8 8 7 7 6 6 6 6 6 5 6 6 7 8 7 6 5 5 6 8 8 7 6 7 4 3 3 3 3 3 3 2 2 2
Wind_Direction
243 233 226 228 240 248 255 263 273 274 271 263 260 253 253 256 251 260 268 262 255 245 237 240 239 228 221 219 213 207 205 211 216 223 229 229 231 233 231 228 226 224 224
241 229 219 217 232 243 250 265 269 270 265 260 268 267 272 264 263 270 270 265 256 248 240 235 237 231 224 221 215 210 206 206 207 222 227 233 220 218 228 229 228 226 217
238 226 221 222 229 240 245 253 265 269 266 259 254 258 255 258 250 254 259 268 261 247 243 242 240 233 228 224 217 212 210 207 208 220 226 229 236 222 212 225 226 226 226
237 235 231 229 231 240 247 252 255 258 259 254 243 246 248 251 260 266 262 262 262 254 242 243 241 238 230 225 222 218 220 214 209 213 232 249 267 236 236 213 217 231 239
240 242 238 237 238 238 242 248 248 249 250 250 249 251 254 259 265 266 263 262 259 259 253 241 238 238 233 225 219 213 216 219 217 211 210 221 233 241 244 249 235 236 236
248 248 243 238 237 232 235 242 239 241 243 244 244 251 258 258 256 258 259 260 257 255 253 244 233 232 229 226 220 214 212 213 216 215 215 216 216 220 232 249 254 255 253
256 251 244 238 236 235 234 237 240 240 237 240 244 249 256 255 251 253 253 253 251 248 249 244 240 235 228 224 221 214 213 213 212 211 217 224 229 230 234 242 251 263 270
272 261 251 243 240 240 238 237 239 241 237 239 243 246 248 250 251 251 252 253 252 250 252 247 243 241 233 224 218 215 215 216 216 217 217 221 225 226 228 232 237 255 256
282 271 259 250 247 243 241 238 239 243 240 241 243 246 248 247 250 252 249 250 251 251 246 245 243 235 227 221 215 215 212 212 214 215 216 220 222 228 231 237 235 238 255
294 282 265 256 253 249 246 242 240 241 244 244 242 244 246 248 249 250 247 244 245 239 238 237 234 227 219 213 213 211 208 205 208 209 208 212 221 220 224 231 243 243 249
297 287 272 260 254 250 245 242 241 241 241 241 242 242 244 245 245 244 243 240 237 234 232 227 228 224 219 215 211 208 202 203 202 204 209 216 221 220 225 234 240 246 248
295 288 278 266 254 248 243 241 241 241 242 243 244 245 243 241 242 242 241 236 233 228 227 224 224 222 221 219 213 206 205 205 202 203 206 215 213 220 226 230 237 248 255
298 291 280 266 258 254 247 243 242 241 240 240 242 242 237 235 241 241 235 230 228 224 220 219 219 219 219 219 217 211 208 209 205 202 204 209 207 216 225 236 245 255 263
297 292 284 272 262 256 250 247 244 238 235 234 236 237 233 231 232 234 228 224 222 220 220 220 223 224 221 218 216 208 204 206 207 205 206 211 212 217 222 235 247 256 261
303 296 287 280 271 261 251 245 245 237 229 229 231 231 227 225 224 224 223 216 215 219 218 216 216 216 216 210 203 198 199 197 197 194 202 207 208 219 228 234 241 247 252
303 298 291 283 274 263 254 245 243 236 230 229 229 227 220 216 218 218 216 214 210 208 207 211 207 206 209 192 198 200 196 195 193 191 196 192 189 196 215 237 254 263 260
299 297 292 284 276 267 255 246 241 234 229 230 229 224 219 216 216 213 212 214 212 206 208 212 209 209 202 195 199 196 192 190 192 194 197 196 194 201 215 226 245 262 270
300 296 292 287 280 273 259 248 239 231 229 228 225 219 215 215 213 210 211 214 212 208 208 210 211 212 201 190 190 187 196 198 199 203 208 212 213 208 230 250 262 270 274
296 292 288 283 277 270 262 248 237 231 230 228 224 217 212 212 209 210 210 208 206 206 205 203 206 209 203 189 188 190 194 198 203 204 211 219 228 207 221 245 260 273 280
295 291 289 283 272 265 253 243 239 233 232 228 225 218 211 211 211 210 207 203 203 205 200 202 206 210 212 190 191 197 201 201 202 201 206 213 227 226 225 240 249 262 276
294 290 284 277 271 266 248 243 243 240 237 229 222 217 212 212 211 206 201 198 197 198 201 205 206 210 210 200 200 205 206 201 204 207 210 207 211 233 238 248 253 264 285
291 288 283 278 273 261 244 245 247 246 235 223 220 217 213 208 203 199 195 195 194 197 202 203 207 208 205 209 204 207 212 208 209 213 216 214 210 231 240 248 252 269 282
288 286 280 279 276 260 241 245 249 241 226 219 219 217 211 207 201 199 194 192 195 200 203 204 207 204 200 199 203 207 206 207 216 215 208 213 217 234 241 234 236 251 259
285 283 278 275 274 267 250 246 247 233 220 221 220 213 210 206 202 200 197 197 198 201 204 206 207 204 200 198 194 197 197 197 206 206 190 197 210 222 225 220 227 251 265
281 277 272 271 272 270 262 252 240 224 220 221 219 212 209 206 202 204 204 204 209 209 204 204 202 199 205 200 192 191 194 191 189 180 188 197 203 207 214 229 241 253 264
280 276 271 268 269 266 261 251 234 219 216 217 215 211 205 202 202 201 205 209 215 210 214 214 205 205 203 183 190 197 198 191 181 183 198 204 211 218 222 230 237 244 256